Weather in Ust-Cilma

Russia / Komi Republic     65°26′26″N   52°09′16″E
temp.,
°C
wind,
m/s
gust,
m/s
humid.,
%
clouds,
%
prec.,
mm/h
press.,
hPa
HPBL,
m
23 october, sat
sat2300:000n2699100 1.8 978285
03:00−1nnw3798100 4.1 980377
06:00−2nnw3896100 1.2 982479
09:00−2nnw4989100 1.6 986673
12:000nw398560 0.1 989758
15:00−1nw39845 0.1 993346
18:00−3wnw310905 0.0 996257
21:00−5w28955 0.0 999159
24 october, sun
sun2400:00−6w279712 0.0 1001130
03:00−6wsw269715 0.0 1003110
06:00−5w2697100 0.0 1004145
09:00−2w2692100 0.0 1005220
12:00−1w2586100 0.0 1006287
15:00−2wsw2493100 0.0 1007109
18:00−3wsw2695100 0.0 1007167
21:00−4wsw2698100 0.0 1007139
25 october, mon
mon2500:00−2w3793100 0.8 1006444
03:00−2wsw2787100 0.8 1006413
06:00−4wsw3894100 0.1 1006414
09:00−4sw269387 0.2 1006316
12:00−2w238594 0.1 1007495
15:00−2nnw1496100 0.3 1008334
18:00−3nnw499387 0.3 1010607
21:00−7w279619 0.4 1012138
26 october, tue
tue2600:00−8w269636 0.0 1013101
03:00−8wsw279618 0.0 1013151
06:00−7w279444 0.0 1013158
09:00−6w39885 0.0 1013272
12:00−3w38815 0.0 1013408
15:00−5w269022 0.0 1013153
18:00−7wsw269731 0.0 1014108
21:00−9sw239888 0.0 101453
27 october, wed
wed2700:00−8sw129891 0.0 101439
03:00−8s1196100 0.0 101316
06:00−6ese149394 0.0 101290
09:00−5ese2883100 0.0 1011255
12:00−3ese41079100 0.0 1009555
15:00−4e41193100 0.5 1006831
18:00−4e51194100 1.8 1003795
21:00−5e51094100 3.6 1001695